Lid_Strength_Index
7 11 13 10 9 8 10 10 11 9 8 10 10 9 8 6 6 6 5 5 5 5 4 4 3 2 1 1 1 1 1 0 0 1 1 1 1 0 -0 -1 -1 -1 -1 -1
10 13 8 8 8 9 10 11 12 10 9 10 10 10 8 7 6 6 5 5 4 4 4 4 5 3 2 2 2 1 1 1 0 0 0 0 0 0 -0 -1 -1 -1 -1 -1
11 9 8 9 10 11 11 12 12 12 10 8 10 11 9 8 7 6 5 5 4 4 4 3 3 4 3 2 2 1 1 1 1 0 0 0 -0 0 1 0 0 -1 -1 -1
10 7 9 11 12 11 14 9 10 11 12 15 10 15 10 8 8 7 6 5 5 4 3 3 3 3 3 2 1 1 1 1 0 1 1 1 2 2 1 1 0 -0 -1 -1
12 10 10 11 10 9 11 9 10 10 13 13 12 15 12 9 10 9 7 6 6 5 4 4 3 2 3 3 1 1 1 1 1 1 1 1 2 1 1 1 1 0 -0 -1
9 7 8 8 8 8 8 10 11 11 12 18 13 13 14 11 10 8 7 6 6 5 4 4 3 2 2 3 3 1 1 1 1 1 1 1 1 2 2 1 1 1 0 0
12 11 8 7 10 9 10 12 18 19 19 18 12 13 13 9 9 8 7 5 5 4 5 5 4 4 3 2 2 2 3 2 1 1 1 1 1 1 1 1 1 1 1 1
16 17 11 8 10 12 12 12 16 20 19 16 13 16 12 8 6 6 5 5 5 4 4 5 5 5 4 4 4 3 3 3 1 1 1 1 1 1 1 1 1 1 1 2
15 14 9 9 8 9 12 14 10 15 15 17 13 11 9 8 8 7 6 6 5 5 5 5 5 5 6 6 6 5 5 4 3 2 1 1 1 1 1 1 1 1 1 1
10 15 11 10 8 8 10 9 16 16 20 20 14 13 13 10 9 7 7 6 6 6 6 6 6 6 6 6 6 6 6 6 4 3 2 1 1 1 1 1 1 1 1 1
10 11 13 10 12 12 12 13 12 12 14 17 17 14 9 10 9 8 7 7 6 6 6 6 6 5 6 6 6 6 6 6 5 4 2 1 1 1 1 1 1 1 1 1
10 12 15 13 10 8 9 11 11 15 16 14 14 14 8 8 8 8 8 7 6 5 5 5 5 5 5 5 5 6 6 6 5 5 3 2 1 1 1 1 1 1 1 1
9 13 17 16 12 10 12 10 10 10 12 15 16 14 8 8 8 8 7 7 6 6 6 5 5 5 5 5 5 5 5 6 6 5 4 2 1 2 2 2 2 2 1 2
8 12 13 15 13 11 13 12 11 11 15 14 14 12 10 9 9 8 7 6 6 7 6 6 6 5 5 4 4 4 4 5 6 5 5 3 2 2 2 2 2 2 2 2
9 13 12 12 11 11 11 12 11 13 12 14 12 11 10 9 8 7 7 7 7 8 7 7 6 6 5 5 4 4 4 5 6 6 5 4 2 2 2 2 2 2 3 3
9 14 12 14 12 12 13 11 11 11 11 11 10 11 8 7 6 7 7 8 8 8 7 7 6 5 5 5 4 4 4 4 6 7 6 4 3 2 2 3 3 4 4 3
11 12 14 16 12 13 16 13 11 11 10 10 13 10 7 8 8 7 7 8 8 8 7 7 6 6 5 5 5 5 4 4 5 6 6 5 4 4 3 4 5 5 5 5
11 12 13 17 16 19 13 12 9 10 9 9 9 8 8 7 6 6 7 8 8 7 8 7 6 6 5 5 5 5 5 5 6 6 6 6 7 7 7 8 7 8 8 9
8 11 17 17 17 14 13 13 12 11 11 8 9 8 8 7 7 8 7 7 6 7 7 6 5 5 6 6 5 5 7 7 7 7 7 7 7 8 11 11 10 10 11 13
11 11 13 20 18 19 13 10 10 9 15 8 8 8 8 8 12 9 6 6 6 6 6 6 5 6 6 6 6 8 8 8 7 8 8 8 9 9 10 10 12 16 14 14
15 15 16 18 17 16 12 11 10 15 14 8 8 8 8 10 8 6 5 6 6 6 5 5 5 6 6 7 7 9 8 8 7 7 8 10 10 11 11 13 15 15 15 16
14 15 16 17 18 20 12 11 12 9 8 8 8 7 8 7 6 6 7 8 7 7 6 5 7 7 6 6 8 9 9 7 8 9 10 11 12 12 13 13 15 15 15 15
15 13 14 14 14 11 10 8 7 7 7 7 6 6 6 7 8 8 8 8 7 7 7 7 7 7 7 7 7 8 8 8 9 10 11 12 12 13 13 13 14 14 14 15
13 11 13 13 11 12 10 9 8 8 8 7 7 7 7 8 8 9 9 9 8 8 8 8 9 9 9 8 8 9 9 9 10 11 11 13 12 13 13 13 13 13 13 14
12 12 13 13 11 10 9 8 7 7 8 9 8 9 8 8 9 9 9 9 8 8 8 8 9 9 10 9 9 9 9 9 11 11 11 13 13 13 13 13 13 13 13 12
12 12 13 13 10 10 9 8 8 9 9 8 9 9 9 9 10 9 9 8 8 8 8 9 9 10 10 10 10 10 10 9 10 11 12 12 12 13 13 14 15 13 13 13